Погода в Манино

Россия / Липецкая область     52°08′25″N   39°20′21″E
темп.,
°C
ветер,
м/с
пор.,
м/с
влажн.,
%
обл.,
%
осадки,
мм/ч
давл.,
гПа
погр.,
м
6 мая, чт
чт600:00+9ю4118170 0.0 1014220
03:00+9ю4127490 0.0 1013294
06:00+9ю41275100 0.0 1013302
09:00+13ю61161100 0.0 1013570
12:00+15ю61155100 0.0 10121549
15:00+17ююз71250100 0.0 10111833
18:00+16ююз5105764 0.0 10101014
21:00+13ю41068100 0.1 1010316
7 мая, пт
пт700:00+11зсз3784100 0.1 1011310
03:00+8сз3790100 0.6 1012442
06:00+7св2491100 6.6 1013259
09:00+10з347793 6.6 1015916
12:00+14сз44435 0.1 10161901
15:00+15зсз22385 0.1 10161844
18:00+15ююз1244100 0.0 10151586
21:00+10юв335599 0.0 101640
8 мая, сб
сб800:00+8юв3969100 0.0 1015154
03:00+9ююв51475100 0.0 1015445
06:00+9ююв61574100 0.0 1012517
09:00+11ююв71475100 0.1 1011745
12:00+14ю81471100 0.1 10081206
15:00+11ю71494100 3.2 1008852
18:00+11юз61096100 5.2 1008706
21:00+10з41091100 5.8 1009670
9 мая, вс
вс900:00+6зсз51187100 0.1 1012713
03:00+5зсз4985100 0.1 1014726
06:00+5зсз4985100 0.0 1015780
09:00+8сз5667100 0.0 10161109
12:00+10ссз5659100 0.1 10171527
15:00+9ссз6869100 0.1 10191127
18:00+8ссз6974100 0.1 1021838
21:00+6ссз4107987 0.1 1023283
10 мая, пн
пн1000:00+6с5128196 0.0 1024382
03:00+4с5138712 0.0 1026393
06:00+5с6148097 0.0 1027642
09:00+10ссв8136122 0.0 10271084
12:00+14св812475 0.0 10271434
15:00+14св71053100 0.0 10261384
18:00+13св6116128 0.0 10261076
21:00+10ссв5136947 0.0 1027469